Time,TemperatureF,DewpointF,PressureIn,WindDirection,WindDirectionDegrees,WindSpeedMPH,WindSpeedGustMPH,Humidity,HourlyPrecipIn,Conditions,Clouds,dailyrainin,SoftwareType,DateUTC
2013-01-03 00:01:00,63.2,61.8,30.02,WSW,247,0.0,0.0,95,0.00,,,0.00,VWS V14.00,2013-01-03 05:01:00,
2013-01-03 00:02:00,63.2,61.8,30.02,WSW,247,0.0,0.0,95,0.00,,,0.00,VWS V14.00,2013-01-03 05:02:00,
2013-01-03 00:03:00,63.2,61.8,30.02,WSW,247,0.0,0.0,95,0.00,,,0.00,VWS V14.00,2013-01-03 05:03:00,
2013-01-03 00:08:00,63.2,61.8,30.02,WSW,247,0.0,0.0,95,0.00,,,0.00,VWS V14.00,2013-01-03 05:08:00,
2013-01-03 00:13:00,63.2,61.8,30.02,WSW,247,0.0,0.0,95,0.00,,,0.00,VWS V14.00,2013-01-03 05:13:00,
2013-01-03 00:18:00,63.2,61.8,30.02,WSW,247,0.0,0.0,95,0.00,,,0.00,VWS V14.00,2013-01-03 05:18:00,
2013-01-03 00:23:00,63.4,62.0,30.02,WSW,247,0.0,0.0,95,0.00,,,0.00,VWS V14.00,2013-01-03 05:23:00,
2013-01-03 00:28:00,63.4,62.0,30.02,WSW,247,0.0,0.0,95,0.00,,,0.00,VWS V14.00,2013-01-03 05:28:00,
2013-01-03 00:33:00,63.6,62.2,30.01,WSW,247,0.0,0.0,95,0.00,,,0.00,VWS V14.00,2013-01-03 05:33:00,
2013-01-03 00:38:00,63.6,62.2,30.01,WSW,247,0.0,0.0,95,0.00,,,0.00,VWS V14.00,2013-01-03 05:38:00,
2013-01-03 00:43:00,63.6,62.2,30.01,WSW,247,0.0,0.0,95,0.00,,,0.00,VWS V14.00,2013-01-03 05:43:00,
2013-01-03 00:48:00,63.7,62.2,30.02,WSW,247,0.0,0.0,95,0.00,,,0.00,VWS V14.00,2013-01-03 05:48:00,
2013-01-03 00:53:00,63.8,62.3,30.01,WSW,247,0.0,0.0,95,0.00,,,0.00,VWS V14.00,2013-01-03 05:53:00,
2013-01-03 00:58:00,64.0,62.5,30.02,WSW,247,0.0,0.0,95,0.00,,,0.00,VWS V14.00,2013-01-03 05:58:00,
2013-01-03 01:03:00,64.2,62.7,30.02,WSW,247,0.0,0.0,95,0.00,,,0.00,VWS V14.00,2013-01-03 06:03:00,
2013-01-03 01:08:00,64.3,63.1,30.02,WSW,247,0.0,0.0,96,0.00,,,0.00,VWS V14.00,2013-01-03 06:08:00,
2013-01-03 01:13:00,64.5,63.3,30.02,WSW,247,0.0,1.0,96,0.00,,,0.00,VWS V14.00,2013-01-03 06:13:00,
2013-01-03 01:18:00,64.7,63.2,30.02,WSW,247,0.0,0.0,95,0.00,,,0.00,VWS V14.00,2013-01-03 06:18:00,
2013-01-03 01:23:00,64.7,63.2,30.02,WSW,247,0.0,0.0,95,0.00,,,0.00,VWS V14.00,2013-01-03 06:23:00,
2013-01-03 01:28:00,64.8,63.3,30.02,WSW,247,0.0,0.0,95,0.00,,,0.00,VWS V14.00,2013-01-03 06:28:00,
2013-01-03 01:33:00,64.8,63.3,30.02,WSW,247,0.0,0.0,95,0.00,,,0.00,VWS V14.00,2013-01-03 06:33:00,
2013-01-03 01:38:00,64.8,63.3,30.02,WSW,247,0.0,1.0,95,0.00,,,0.00,VWS V14.00,2013-01-03 06:38:00,
2013-01-03 01:43:00,64.8,63.3,30.01,WSW,247,0.0,1.0,95,0.00,,,0.00,VWS V14.00,2013-01-03 06:43:00,
2013-01-03 01:48:00,64.9,63.4,30.01,WSW,247,0.0,0.0,95,0.00,,,0.00,VWS V14.00,2013-01-03 06:48:00,
2013-01-03 01:53:00,64.9,63.4,30.02,WSW,247,0.0,0.0,95,0.00,,,0.00,VWS V14.00,2013-01-03 06:53:00,
2013-01-03 01:58:00,64.8,63.3,30.02,WSW,247,0.0,0.0,95,0.00,,,0.00,VWS V14.00,2013-01-03 06:58:00,
2013-01-03 02:03:00,64.7,63.2,30.02,WSW,247,0.0,0.0,95,0.00,,,0.00,VWS V14.00,2013-01-03 07:03:00,
2013-01-03 02:08:00,64.5,63.0,30.02,WSW,247,0.0,0.0,95,0.00,,,0.00,VWS V14.00,2013-01-03 07:08:00,
2013-01-03 02:13:00,64.4,62.9,30.02,WSW,247,0.0,0.0,95,0.00,,,0.00,VWS V14.00,2013-01-03 07:13:00,
2013-01-03 02:18:00,64.2,62.7,30.02,WSW,247,0.0,0.0,95,0.00,,,0.00,VWS V14.00,2013-01-03 07:18:00,
2013-01-03 02:23:00,64.2,62.7,30.01,WSW,247,0.0,0.0,95,0.00,,,0.00,VWS V14.00,2013-01-03 07:23:00,
2013-01-03 02:28:00,64.2,62.7,30.02,WSW,247,0.0,0.0,95,0.00,,,0.00,VWS V14.00,2013-01-03 07:28:00,
2013-01-03 02:33:00,64.3,63.1,30.02,WSW,247,0.0,1.0,96,0.00,,,0.00,VWS V14.00,2013-01-03 07:33:00,
2013-01-03 02:38:00,64.4,63.2,30.02,WSW,247,0.0,1.0,96,0.00,,,0.00,VWS V14.00,2013-01-03 07:38:00,
2013-01-03 02:43:00,64.4,63.2,30.01,WSW,248,0.0,2.0,96,0.00,,,0.00,VWS V14.00,2013-01-03 07:43:00,
2013-01-03 02:48:00,64.4,63.2,30.01,WSW,248,0.0,0.0,96,0.00,,,0.00,VWS V14.00,2013-01-03 07:48:00,
2013-01-03 02:53:00,64.5,63.3,30.01,SSW,207,1.0,2.0,96,0.00,,,0.00,VWS V14.00,2013-01-03 07:53:00,
2013-01-03 02:58:00,64.5,63.3,30.01,SSW,207,0.0,2.0,96,0.00,,,0.00,VWS V14.00,2013-01-03 07:58:00,
2013-01-03 03:03:00,64.5,63.3,30.01,SSW,207,0.0,1.0,96,0.00,,,0.00,VWS V14.00,2013-01-03 08:03:00,
2013-01-03 03:08:00,64.5,63.3,30.02,SSW,207,0.0,1.0,96,0.00,,,0.00,VWS V14.00,2013-01-03 08:08:00,
2013-01-03 03:13:00,64.5,63.3,30.01,SSW,207,0.0,1.0,96,0.00,,,0.00,VWS V14.00,2013-01-03 08:13:00,
2013-01-03 03:18:00,64.5,63.3,30.01,SSW,207,0.0,2.0,96,0.00,,,0.00,VWS V14.00,2013-01-03 08:18:00,
2013-01-03 03:23:00,64.3,62.8,30.01,SSE,165,2.0,2.0,95,0.00,,,0.00,VWS V14.00,2013-01-03 08:23:00,
2013-01-03 03:28:00,64.3,63.1,30.01,SSE,165,0.0,2.0,96,0.00,,,0.00,VWS V14.00,2013-01-03 08:28:00,
2013-01-03 03:33:00,64.2,63.0,30.02,SSE,165,0.0,2.0,96,0.00,,,0.00,VWS V14.00,2013-01-03 08:33:00,
2013-01-03 03:38:00,64.2,62.7,30.01,SSE,165,0.0,2.0,95,0.00,,,0.00,VWS V14.00,2013-01-03 08:38:00,
2013-01-03 03:43:00,64.1,62.9,30.01,SSE,165,0.0,2.0,96,0.00,,,0.00,VWS V14.00,2013-01-03 08:43:00,
2013-01-03 03:48:00,64.2,63.0,30.01,SSE,165,0.0,1.0,96,0.00,,,0.00,VWS V14.00,2013-01-03 08:48:00,
2013-01-03 03:53:00,64.2,63.0,30.01,SSE,165,0.0,2.0,96,0.00,,,0.00,VWS V14.00,2013-01-03 08:53:00,
2013-01-03 03:58:00,64.3,63.1,30.01,SSE,165,0.0,2.0,96,0.00,,,0.00,VWS V14.00,2013-01-03 08:58:00,
2013-01-03 04:03:00,64.2,63.0,30.01,SSE,165,2.0,2.0,96,0.00,,,0.00,VWS V14.00,2013-01-03 09:03:00,
2013-01-03 04:08:00,64.3,63.1,30.01,SSE,165,1.0,2.0,96,0.00,,,0.00,VWS V14.00,2013-01-03 09:08:00,
2013-01-03 04:13:00,64.2,63.0,30.01,SE,126,1.0,5.0,96,0.00,,,0.00,VWS V14.00,2013-01-03 09:13:00,
2013-01-03 04:18:00,64.1,62.6,30.01,SE,126,1.0,4.0,95,0.00,,,0.00,VWS V14.00,2013-01-03 09:18:00,
2013-01-03 04:23:00,64.0,62.5,30.01,ESE,123,0.0,5.0,95,0.00,,,0.00,VWS V14.00,2013-01-03 09:23:00,
2013-01-03 04:28:00,63.9,62.4,30.01,ESE,123,0.0,5.0,95,0.00,,,0.00,VWS V14.00,2013-01-03 09:28:00,
2013-01-03 04:33:00,63.8,62.6,30.01,ESE,123,0.0,2.0,96,0.00,,,0.00,VWS V14.00,2013-01-03 09:33:00,
2013-01-03 04:38:00,63.8,62.6,30.01,ESE,123,0.0,2.0,96,0.00,,,0.00,VWS V14.00,2013-01-03 09:38:00,
2013-01-03 04:43:00,63.8,62.6,30.01,ESE,123,0.0,2.0,96,0.00,,,0.00,VWS V14.00,2013-01-03 09:43:00,
2013-01-03 04:48:00,63.7,62.5,30.00,ESE,123,1.0,2.0,96,0.00,,,0.00,VWS V14.00,2013-01-03 09:48:00,
2013-01-03 04:53:00,63.7,62.5,30.00,ESE,123,0.0,2.0,96,0.00,,,0.00,VWS V14.00,2013-01-03 09:53:00,
2013-01-03 04:58:00,63.6,62.4,30.00,ESE,123,0.0,2.0,96,0.00,,,0.00,VWS V14.00,2013-01-03 09:58:00,
2013-01-03 05:03:00,63.6,62.4,30.01,ESE,123,0.0,1.0,96,0.00,,,0.00,VWS V14.00,2013-01-03 10:03:00,
2013-01-03 05:08:00,63.6,62.4,30.01,ESE,123,0.0,2.0,96,0.00,,,0.00,VWS V14.00,2013-01-03 10:08:00,
2013-01-03 05:13:00,63.5,62.3,30.00,ESE,123,0.0,2.0,96,0.00,,,0.00,VWS V14.00,2013-01-03 10:13:00,
2013-01-03 05:18:00,63.6,62.4,30.00,ESE,123,1.0,4.0,96,0.00,,,0.00,VWS V14.00,2013-01-03 10:18:00,
2013-01-03 05:23:00,63.6,62.4,30.00,ESE,123,1.0,4.0,96,0.00,,,0.00,VWS V14.00,2013-01-03 10:23:00,
2013-01-03 05:28:00,63.6,62.4,30.01,ESE,123,0.0,5.0,96,0.00,,,0.00,VWS V14.00,2013-01-03 10:28:00,
2013-01-03 05:33:00,63.6,62.4,30.01,ESE,123,0.0,1.0,96,0.00,,,0.00,VWS V14.00,2013-01-03 10:33:00,
2013-01-03 05:38:00,63.6,62.4,30.01,ESE,123,0.0,1.0,96,0.00,,,0.00,VWS V14.00,2013-01-03 10:38:00,
2013-01-03 05:43:00,63.6,62.4,30.01,ESE,123,2.0,2.0,96,0.00,,,0.00,VWS V14.00,2013-01-03 10:43:00,
2013-01-03 05:48:00,63.6,62.4,30.01,ESE,123,0.0,2.0,96,0.00,,,0.00,VWS V14.00,2013-01-03 10:48:00,
2013-01-03 05:53:00,63.7,62.5,30.01,ESE,123,0.0,2.0,96,0.00,,,0.00,VWS V14.00,2013-01-03 10:53:00,
2013-01-03 05:58:00,63.7,62.5,30.01,ESE,123,0.0,2.0,96,0.00,,,0.00,VWS V14.00,2013-01-03 10:58:00,
2013-01-03 06:03:00,63.7,62.5,30.02,ESE,123,0.0,2.0,96,0.00,,,0.00,VWS V14.00,2013-01-03 11:03:00,
2013-01-03 06:08:00,63.7,62.5,30.02,ESE,123,0.0,2.0,96,0.00,,,0.00,VWS V14.00,2013-01-03 11:08:00,
2013-01-03 06:13:00,63.6,62.4,30.02,ESE,123,0.0,2.0,96,0.00,,,0.00,VWS V14.00,2013-01-03 11:13:00,
2013-01-03 06:18:00,63.6,62.4,30.01,ESE,123,0.0,0.0,96,0.00,,,0.00,VWS V14.00,2013-01-03 11:18:00,
2013-01-03 06:23:00,63.5,62.3,30.02,ESE,123,0.0,1.0,96,0.00,,,0.00,VWS V14.00,2013-01-03 11:23:00,
2013-01-03 06:28:00,63.4,62.2,30.02,ESE,123,0.0,2.0,96,0.00,,,0.00,VWS V14.00,2013-01-03 11:28:00,
2013-01-03 06:33:00,63.2,62.0,30.02,ESE,123,0.0,1.0,96,0.00,,,0.00,VWS V14.00,2013-01-03 11:33:00,
2013-01-03 06:38:00,63.1,61.9,30.03,ESE,123,0.0,1.0,96,0.00,,,0.00,VWS V14.00,2013-01-03 11:38:00,
2013-01-03 06:43:00,63.1,61.9,30.02,ESE,123,0.0,1.0,96,0.00,,,0.00,VWS V14.00,2013-01-03 11:43:00,
2013-01-03 06:48:00,62.9,61.8,30.02,ESE,123,2.0,2.0,96,0.00,,,0.00,VWS V14.00,2013-01-03 11:48:00,
2013-01-03 06:53:00,62.7,61.5,30.02,ESE,123,0.0,2.0,96,0.00,,,0.00,VWS V14.00,2013-01-03 11:53:00,
2013-01-03 06:58:00,62.6,61.5,30.03,ESE,123,0.0,2.0,96,0.00,,,0.00,VWS V14.00,2013-01-03 11:58:00,
2013-01-03 07:03:00,62.5,61.3,30.03,ESE,123,0.0,0.0,96,0.00,,,0.00,VWS V14.00,2013-01-03 12:03:00,
2013-01-03 07:08:00,62.4,61.2,30.03,ESE,123,0.0,0.0,96,0.00,,,0.00,VWS V14.00,2013-01-03 12:08:00,
2013-01-03 07:13:00,62.3,61.2,30.03,ESE,123,0.0,0.0,96,0.00,,,0.00,VWS V14.00,2013-01-03 12:13:00,
2013-01-03 07:18:00,62.2,61.0,30.03,ESE,123,0.0,0.0,96,0.00,,,0.00,VWS V14.00,2013-01-03 12:18:00,
2013-01-03 07:23:00,61.9,60.8,30.03,ESE,123,0.0,0.0,96,0.00,,,0.00,VWS V14.00,2013-01-03 12:23:00,
2013-01-03 07:28:00,61.7,60.5,30.03,ESE,123,0.0,0.0,96,0.00,,,0.00,VWS V14.00,2013-01-03 12:28:00,
2013-01-03 07:33:00,61.6,60.5,30.03,ESE,123,0.0,0.0,96,0.00,,,0.00,VWS V14.00,2013-01-03 12:33:00,
2013-01-03 07:38:00,61.5,60.3,30.04,ESE,123,0.0,0.0,96,0.00,,,0.00,VWS V14.00,2013-01-03 12:38:00,
2013-01-03 07:43:00,61.6,60.5,30.04,ESE,123,0.0,0.0,96,0.00,,,0.00,VWS V14.00,2013-01-03 12:43:00,
2013-01-03 07:48:00,61.7,60.5,30.04,ESE,123,0.0,0.0,96,0.00,,,0.00,VWS V14.00,2013-01-03 12:48:00,
2013-01-03 07:53:00,61.8,60.7,30.05,ESE,123,0.0,0.0,96,0.00,,,0.00,VWS V14.00,2013-01-03 12:53:00,
2013-01-03 07:58:00,62.0,60.8,30.04,ESE,123,0.0,0.0,96,0.00,,,0.00,VWS V14.00,2013-01-03 12:58:00,
2013-01-03 08:03:00,62.1,61.0,30.05,ESE,123,0.0,1.0,96,0.00,,,0.00,VWS V14.00,2013-01-03 13:03:00,
2013-01-03 08:08:00,62.3,61.2,30.05,ESE,123,0.0,1.0,96,0.00,,,0.00,VWS V14.00,2013-01-03 13:08:00,
2013-01-03 08:13:00,62.4,61.2,30.05,ESE,123,0.0,1.0,96,0.00,,,0.00,VWS V14.00,2013-01-03 13:13:00,
2013-01-03 08:18:00,62.5,61.3,30.05,ESE,123,0.0,2.0,96,0.00,,,0.00,VWS V14.00,2013-01-03 13:18:00,
2013-01-03 08:23:00,62.6,61.5,30.05,ESE,123,0.0,2.0,96,0.00,,,0.00,VWS V14.00,2013-01-03 13:23:00,
2013-01-03 08:28:00,62.8,61.7,30.06,ESE,123,0.0,2.0,96,0.00,,,0.00,VWS V14.00,2013-01-03 13:28:00,
2013-01-03 08:33:00,63.0,61.8,30.06,ESE,123,0.0,0.0,96,0.00,,,0.00,VWS V14.00,2013-01-03 13:33:00,
2013-01-03 08:38:00,63.2,62.3,30.06,ESE,109,0.0,2.0,97,0.00,,,0.00,VWS V14.00,2013-01-03 13:38:00,
2013-01-03 08:43:00,63.5,62.3,30.05,ESE,111,0.0,2.0,96,0.00,,,0.00,VWS V14.00,2013-01-03 13:43:00,
2013-01-03 08:48:00,63.8,62.9,30.05,ESE,111,0.0,1.0,97,0.00,,,0.00,VWS V14.00,2013-01-03 13:48:00,
2013-01-03 08:53:00,64.2,63.3,30.05,ESE,111,0.0,2.0,97,0.00,,,0.00,VWS V14.00,2013-01-03 13:53:00,
2013-01-03 08:58:00,64.7,63.8,30.06,ESE,111,0.0,2.0,97,0.00,,,0.00,VWS V14.00,2013-01-03 13:58:00,
2013-01-03 09:03:00,65.2,64.3,30.06,ESE,111,0.0,2.0,97,0.00,,,0.00,VWS V14.00,2013-01-03 14:03:00,
2013-01-03 09:08:00,65.5,64.6,30.06,ESE,111,0.0,2.0,97,0.00,,,0.00,VWS V14.00,2013-01-03 14:08:00,
2013-01-03 09:13:00,66.1,65.2,30.06,ESE,111,1.0,2.0,97,0.00,,,0.00,VWS V14.00,2013-01-03 14:13:00,
2013-01-03 09:18:00,66.8,65.9,30.06,ESE,111,0.0,1.0,97,0.00,,,0.00,VWS V14.00,2013-01-03 14:18:00,
2013-01-03 09:23:00,67.3,66.4,30.06,ESE,111,0.0,2.0,97,0.00,,,0.00,VWS V14.00,2013-01-03 14:23:00,
2013-01-03 09:28:00,67.6,66.7,30.07,ESE,111,0.0,5.0,97,0.00,,,0.00,VWS V14.00,2013-01-03 14:28:00,
2013-01-03 09:33:00,67.7,66.8,30.07,ESE,111,2.0,4.0,97,0.00,,,0.00,VWS V14.00,2013-01-03 14:33:00,
2013-01-03 09:38:00,67.8,66.9,30.07,ESE,121,4.0,4.0,97,0.00,,,0.00,VWS V14.00,2013-01-03 14:38:00,
2013-01-03 09:43:00,67.9,67.0,30.07,ESE,121,0.0,5.0,97,0.00,,,0.00,VWS V14.00,2013-01-03 14:43:00,
2013-01-03 09:48:00,68.2,67.0,30.07,ESE,118,1.0,4.0,96,0.00,,,0.00,VWS V14.00,2013-01-03 14:48:00,
2013-01-03 09:53:00,68.4,67.2,30.07,ESE,118,0.0,4.0,96,0.00,,,0.00,VWS V14.00,2013-01-03 14:53:00,
2013-01-03 09:58:00,68.7,67.5,30.07,ESE,108,1.0,6.0,96,0.00,,,0.00,VWS V14.00,2013-01-03 14:58:00,
2013-01-03 10:03:00,69.0,67.8,30.07,SSE,157,0.0,6.0,96,0.00,,,0.00,VWS V14.00,2013-01-03 15:03:00,
2013-01-03 10:08:00,69.3,68.1,30.07,NE,48,0.0,6.0,96,0.00,,,0.00,VWS V14.00,2013-01-03 15:08:00,
2013-01-03 10:13:00,69.6,68.4,30.07,SE,128,2.0,6.0,96,0.00,,,0.00,VWS V14.00,2013-01-03 15:13:00,
2013-01-03 10:18:00,69.9,68.4,30.07,SE,128,2.0,6.0,95,0.00,,,0.00,VWS V14.00,2013-01-03 15:18:00,
2013-01-03 10:23:00,70.2,68.7,30.07,ESE,111,2.0,6.0,95,0.00,,,0.00,VWS V14.00,2013-01-03 15:23:00,
2013-01-03 10:28:00,70.5,68.7,30.06,ESE,115,0.0,6.0,94,0.00,,,0.00,VWS V14.00,2013-01-03 15:28:00,
2013-01-03 10:33:00,71.0,69.2,30.06,ESE,115,0.0,4.0,94,0.00,,,0.00,VWS V14.00,2013-01-03 15:33:00,
2013-01-03 10:38:00,71.5,69.1,30.06,East,98,2.0,5.0,92,0.00,,,0.00,VWS V14.00,2013-01-03 15:38:00,
2013-01-03 10:43:00,72.0,69.2,30.06,SE,127,0.0,5.0,91,0.00,,,0.00,VWS V14.00,2013-01-03 15:43:00,
2013-01-03 10:48:00,72.7,69.6,30.06,SSE,163,1.0,6.0,90,0.00,,,0.00,VWS V14.00,2013-01-03 15:48:00,
2013-01-03 10:53:00,73.1,69.7,30.06,SE,146,0.0,6.0,89,0.00,,,0.00,VWS V14.00,2013-01-03 15:53:00,
2013-01-03 10:58:00,73.8,70.0,30.06,ESE,113,0.0,6.0,88,0.00,,,0.00,VWS V14.00,2013-01-03 15:58:00,
2013-01-03 11:03:00,74.1,69.7,30.06,ESE,113,0.0,4.0,86,0.00,,,0.00,VWS V14.00,2013-01-03 16:03:00,
2013-01-03 11:08:00,74.4,69.9,30.06,SE,134,1.0,6.0,86,0.00,,,0.00,VWS V14.00,2013-01-03 16:08:00,
2013-01-03 11:13:00,74.8,70.3,30.05,SSW,200,4.0,6.0,86,0.00,,,0.00,VWS V14.00,2013-01-03 16:13:00,
2013-01-03 11:18:00,75.3,70.1,30.05,South,187,2.0,7.0,84,0.00,,,0.00,VWS V14.00,2013-01-03 16:18:00,
2013-01-03 11:23:00,75.7,70.2,30.05,SSE,156,4.0,11.0,83,0.00,,,0.00,VWS V14.00,2013-01-03 16:23:00,
2013-01-03 11:28:00,76.0,70.1,30.05,SSW,209,1.0,11.0,82,0.00,,,0.00,VWS V14.00,2013-01-03 16:28:00,
2013-01-03 11:33:00,76.6,70.3,30.05,South,175,6.0,10.0,81,0.00,,,0.00,VWS V14.00,2013-01-03 16:33:00,
2013-01-03 11:38:00,76.8,69.8,30.04,ESE,119,6.0,11.0,79,0.00,,,0.00,VWS V14.00,2013-01-03 16:38:00,
2013-01-03 11:43:00,76.8,70.2,30.04,SSE,163,5.0,12.0,80,0.00,,,0.00,VWS V14.00,2013-01-03 16:43:00,
2013-01-03 11:48:00,77.1,69.3,30.04,SSE,161,9.0,12.0,77,0.00,,,0.00,VWS V14.00,2013-01-03 16:48:00,
2013-01-03 11:53:00,77.3,69.5,30.04,South,169,0.0,12.0,77,0.00,,,0.00,VWS V14.00,2013-01-03 16:53:00,
2013-01-03 11:58:00,77.6,69.1,30.03,SSW,213,4.0,12.0,75,0.00,,,0.00,VWS V14.00,2013-01-03 16:58:00,
2013-01-03 12:03:00,78.1,68.8,30.03,SSE,153,7.0,11.0,73,0.00,,,0.00,VWS V14.00,2013-01-03 17:03:00,
2013-01-03 12:08:00,78.1,68.3,30.02,SE,144,8.0,11.0,72,0.00,,,0.00,VWS V14.00,2013-01-03 17:08:00,
2013-01-03 12:13:00,78.1,68.8,30.02,SE,144,1.0,11.0,73,0.00,,,0.00,VWS V14.00,2013-01-03 17:13:00,
2013-01-03 12:18:00,78.5,68.3,30.02,SSW,198,6.0,9.0,71,0.00,,,0.00,VWS V14.00,2013-01-03 17:18:00,
2013-01-03 12:23:00,79.1,68.5,30.01,South,182,7.0,10.0,70,0.00,,,0.00,VWS V14.00,2013-01-03 17:23:00,
2013-01-03 12:28:00,79.4,68.3,30.01,SSW,200,5.0,12.0,69,0.00,,,0.00,VWS V14.00,2013-01-03 17:28:00,
2013-01-03 12:33:00,79.3,68.7,30.01,SSW,211,4.0,11.0,70,0.00,,,0.00,VWS V14.00,2013-01-03 17:33:00,
2013-01-03 12:38:00,79.6,68.1,30.01,SSW,200,9.0,11.0,68,0.00,,,0.00,VWS V14.00,2013-01-03 17:38:00,
2013-01-03 12:43:00,79.7,67.8,30.00,SSW,212,5.0,11.0,67,0.00,,,0.00,VWS V14.00,2013-01-03 17:43:00,
2013-01-03 12:48:00,79.7,68.6,30.00,South,176,5.0,10.0,69,0.00,,,0.00,VWS V14.00,2013-01-03 17:48:00,
2013-01-03 12:53:00,80.1,68.2,29.99,SSW,199,3.0,10.0,67,0.00,,,0.00,VWS V14.00,2013-01-03 17:53:00,
2013-01-03 12:58:00,80.6,68.2,29.99,South,190,4.0,11.0,66,0.00,,,0.00,VWS V14.00,2013-01-03 17:58:00,
2013-01-03 13:03:00,80.7,67.8,29.99,SSW,200,9.0,11.0,65,0.00,,,0.00,VWS V14.00,2013-01-03 18:03:00,
2013-01-03 13:08:00,80.2,68.3,29.99,SSW,207,2.0,12.0,67,0.00,,,0.00,VWS V14.00,2013-01-03 18:08:00,
2013-01-03 13:13:00,80.5,68.1,29.98,South,173,6.0,14.0,66,0.00,,,0.00,VWS V14.00,2013-01-03 18:13:00,
2013-01-03 13:18:00,80.8,67.9,29.98,South,178,6.0,10.0,65,0.00,,,0.00,VWS V14.00,2013-01-03 18:18:00,
2013-01-03 13:23:00,81.0,68.1,29.97,South,174,0.0,11.0,65,0.00,,,0.00,VWS V14.00,2013-01-03 18:23:00,
2013-01-03 13:28:00,81.0,67.2,29.98,SW,223,3.0,15.0,63,0.00,,,0.00,VWS V14.00,2013-01-03 18:28:00,
2013-01-03 13:33:00,81.0,67.7,29.98,SW,227,2.0,15.0,64,0.00,,,0.00,VWS V14.00,2013-01-03 18:33:00,
2013-01-03 13:38:00,80.9,66.2,29.98,SE,141,4.0,16.0,61,0.00,,,0.00,VWS V14.00,2013-01-03 18:38:00,
2013-01-03 13:43:00,80.8,67.0,29.98,SSW,205,10.0,16.0,63,0.00,,,0.00,VWS V14.00,2013-01-03 18:43:00,
2013-01-03 13:48:00,80.9,66.2,29.99,SSE,153,5.0,11.0,61,0.00,,,0.00,VWS V14.00,2013-01-03 18:48:00,
2013-01-03 13:53:00,81.4,67.1,29.98,SSW,206,1.0,11.0,62,0.00,,,0.00,VWS V14.00,2013-01-03 18:53:00,
2013-01-03 13:58:00,81.6,66.9,29.98,SSW,208,8.0,12.0,61,0.00,,,0.00,VWS V14.00,2013-01-03 18:58:00,
2013-01-03 14:03:00,81.6,66.9,29.98,SSW,208,8.0,12.0,61,0.00,,,0.00,VWS V14.00,2013-01-03 19:03:00,
2013-01-03 14:08:00,81.4,66.2,29.98,SW,226,3.0,12.0,60,0.00,,,0.00,VWS V14.00,2013-01-03 19:08:00,
2013-01-03 14:13:00,81.4,66.2,29.98,WSW,238,12.0,17.0,60,0.00,,,0.00,VWS V14.00,2013-01-03 19:13:00,
2013-01-03 14:18:00,81.1,66.4,29.98,SW,217,9.0,10.0,61,0.00,,,0.00,VWS V14.00,2013-01-03 19:18:00,
2013-01-03 14:55:00,81.1,62.4,29.98,SW,231,7.0,13.0,53,0.00,,,0.00,VWS V14.00,2013-01-03 19:55:00,
2013-01-03 15:00:00,81.1,62.9,29.99,WSW,258,8.0,13.0,54,0.00,,,0.00,VWS V14.00,2013-01-03 20:00:00,
2013-01-03 15:05:00,81.2,62.5,29.99,SW,220,3.0,11.0,53,0.00,,,0.00,VWS V14.00,2013-01-03 20:05:00,
2013-01-03 15:10:00,81.6,62.3,29.98,South,176,8.0,11.0,52,0.00,,,0.00,VWS V14.00,2013-01-03 20:10:00,
2013-01-03 15:15:00,81.4,61.5,29.98,SSW,205,4.0,12.0,51,0.00,,,0.00,VWS V14.00,2013-01-03 20:15:00,
2013-01-03 15:20:00,81.4,61.5,29.98,West,260,6.0,10.0,51,0.00,,,0.00,VWS V14.00,2013-01-03 20:20:00,
2013-01-03 15:24:00,81.3,61.5,29.98,SW,223,6.0,12.0,51,0.00,,,0.00,VWS V14.00,2013-01-03 20:24:00,
2013-01-03 15:29:00,81.1,61.8,29.98,SW,223,7.0,12.0,52,0.00,,,0.00,VWS V14.00,2013-01-03 20:29:00,
2013-01-03 15:34:00,81.0,62.3,29.99,South,178,6.0,13.0,53,0.00,,,0.00,VWS V14.00,2013-01-03 20:34:00,
2013-01-03 15:39:00,81.0,62.3,29.98,SSW,206,8.0,13.0,53,0.00,,,0.00,VWS V14.00,2013-01-03 20:39:00,
2013-01-03 15:44:00,80.7,62.5,29.98,SSW,192,8.0,13.0,54,0.00,,,0.00,VWS V14.00,2013-01-03 20:44:00,
2013-01-03 15:49:00,80.5,62.9,29.99,SSW,207,6.0,13.0,55,0.00,,,0.00,VWS V14.00,2013-01-03 20:49:00,
2013-01-03 15:54:00,80.5,63.4,29.99,SSW,200,5.0,13.0,56,0.00,,,0.00,VWS V14.00,2013-01-03 20:54:00,
2013-01-03 15:59:00,80.4,63.8,30.00,SSW,207,6.0,13.0,57,0.00,,,0.00,VWS V14.00,2013-01-03 20:59:00,
2013-01-03 16:04:00,80.5,64.9,30.00,SW,233,6.0,12.0,59,0.00,,,0.00,VWS V14.00,2013-01-03 21:04:00,
2013-01-03 16:09:00,80.3,65.2,30.00,SSW,209,7.0,12.0,60,0.00,,,0.00,VWS V14.00,2013-01-03 21:09:00,
2013-01-03 16:14:00,80.2,66.0,30.00,WSW,238,6.0,12.0,62,0.00,,,0.00,VWS V14.00,2013-01-03 21:14:00,
2013-01-03 16:19:00,80.0,65.8,30.00,SSW,194,9.0,9.0,62,0.00,,,0.00,VWS V14.00,2013-01-03 21:19:00,
2013-01-03 16:24:00,79.8,66.6,30.00,SSW,209,4.0,10.0,64,0.00,,,0.00,VWS V14.00,2013-01-03 21:24:00,
2013-01-03 16:29:00,79.5,66.7,30.01,SW,217,5.0,10.0,65,0.00,,,0.00,VWS V14.00,2013-01-03 21:29:00,
2013-01-03 16:34:00,79.2,67.3,29.99,South,178,4.0,13.0,67,0.00,,,0.00,VWS V14.00,2013-01-03 21:34:00,
2013-01-03 16:39:00,79.1,67.2,30.00,SSW,209,7.0,13.0,67,0.00,,,0.00,VWS V14.00,2013-01-03 21:39:00,
2013-01-03 16:44:00,78.9,67.4,30.00,South,188,7.0,13.0,68,0.00,,,0.00,VWS V14.00,2013-01-03 21:44:00,
2013-01-03 16:49:00,78.7,67.7,30.01,SSW,197,8.0,11.0,69,0.00,,,0.00,VWS V14.00,2013-01-03 21:49:00,
2013-01-03 16:54:00,78.5,67.5,30.01,SW,224,3.0,11.0,69,0.00,,,0.00,VWS V14.00,2013-01-03 21:54:00,
2013-01-03 16:59:00,78.4,67.4,30.01,SSW,198,3.0,11.0,69,0.00,,,0.00,VWS V14.00,2013-01-03 21:59:00,
2013-01-03 17:04:00,78.3,67.7,30.01,SSW,211,4.0,8.0,70,0.00,,,0.00,VWS V14.00,2013-01-03 22:04:00,
2013-01-03 17:09:00,78.0,67.8,30.01,South,189,3.0,8.0,71,0.00,,,0.00,VWS V14.00,2013-01-03 22:09:00,
2013-01-03 17:14:00,77.7,68.0,30.02,SW,221,0.0,8.0,72,0.00,,,0.00,VWS V14.00,2013-01-03 22:14:00,
2013-01-03 17:19:00,77.4,67.7,30.02,SSW,200,4.0,6.0,72,0.00,,,0.00,VWS V14.00,2013-01-03 22:19:00,
2013-01-03 17:24:00,77.2,67.9,30.02,SSW,200,0.0,6.0,73,0.00,,,0.00,VWS V14.00,2013-01-03 22:24:00,
2013-01-03 17:29:00,77.0,68.1,30.02,SSW,205,1.0,6.0,74,0.00,,,0.00,VWS V14.00,2013-01-03 22:29:00,
2013-01-03 17:34:00,76.7,67.8,30.02,SW,219,0.0,5.0,74,0.00,,,0.00,VWS V14.00,2013-01-03 22:34:00,
2013-01-03 17:39:00,76.5,68.0,30.02,SW,217,0.0,5.0,75,0.00,,,0.00,VWS V14.00,2013-01-03 22:39:00,
2013-01-03 17:44:00,76.3,68.2,30.02,SW,218,4.0,5.0,76,0.00,,,0.00,VWS V14.00,2013-01-03 22:44:00,
2013-01-03 17:49:00,76.0,67.9,30.02,SW,217,0.0,5.0,76,0.00,,,0.00,VWS V14.00,2013-01-03 22:49:00,
2013-01-03 17:54:00,75.8,68.1,30.02,SW,217,0.0,5.0,77,0.00,,,0.00,VWS V14.00,2013-01-03 22:54:00,
2013-01-03 17:59:00,75.5,67.8,30.03,SW,217,0.0,5.0,77,0.00,,,0.00,VWS V14.00,2013-01-03 22:59:00,
2013-01-03 18:04:00,75.3,68.0,30.02,SW,217,0.0,2.0,78,0.00,,,0.00,VWS V14.00,2013-01-03 23:04:00,
2013-01-03 18:09:00,75.1,67.8,30.02,SW,217,0.0,2.0,78,0.00,,,0.00,VWS V14.00,2013-01-03 23:09:00,
2013-01-03 18:14:00,74.8,67.9,30.02,SW,217,0.0,2.0,79,0.00,,,0.00,VWS V14.00,2013-01-03 23:14:00,
2013-01-03 18:19:00,74.6,67.7,30.02,SW,217,0.0,1.0,79,0.00,,,0.00,VWS V14.00,2013-01-03 23:19:00,
2013-01-03 18:24:00,74.2,67.6,30.03,SW,217,0.0,1.0,80,0.00,,,0.00,VWS V14.00,2013-01-03 23:24:00,
2013-01-03 18:29:00,74.0,67.4,30.03,SW,217,0.0,1.0,80,0.00,,,0.00,VWS V14.00,2013-01-03 23:29:00,
2013-01-03 18:34:00,73.8,67.6,30.04,SW,217,0.0,0.0,81,0.00,,,0.00,VWS V14.00,2013-01-03 23:34:00,
2013-01-03 18:39:00,73.5,67.3,30.04,SW,217,0.0,0.0,81,0.00,,,0.00,VWS V14.00,2013-01-03 23:39:00,
2013-01-03 18:44:00,73.2,67.7,30.05,SW,217,0.0,0.0,83,0.00,,,0.00,VWS V14.00,2013-01-03 23:44:00,
2013-01-03 18:49:00,72.9,67.4,30.05,SW,217,0.0,0.0,83,0.00,,,0.00,VWS V14.00,2013-01-03 23:49:00,
2013-01-03 18:54:00,72.7,67.6,30.05,SW,217,0.0,0.0,84,0.00,,,0.00,VWS V14.00,2013-01-03 23:54:00,
2013-01-03 18:59:00,72.5,67.4,30.05,SW,217,0.0,0.0,84,0.00,,,0.00,VWS V14.00,2013-01-03 23:59:00,
2013-01-03 19:04:00,72.5,67.7,30.05,SW,217,0.0,0.0,85,0.00,,,0.00,VWS V14.00,2013-01-04 00:04:00,
2013-01-03 19:09:00,72.4,68.0,30.05,SW,217,0.0,0.0,86,0.00,,,0.00,VWS V14.00,2013-01-04 00:09:00,
2013-01-03 19:14:00,72.3,67.9,30.05,SW,217,0.0,0.0,86,0.00,,,0.00,VWS V14.00,2013-01-04 00:14:00,
2013-01-03 19:19:00,72.2,67.8,30.06,SW,217,0.0,0.0,86,0.00,,,0.00,VWS V14.00,2013-01-04 00:19:00,
2013-01-03 19:24:00,72.1,67.7,30.06,SW,217,0.0,0.0,86,0.00,,,0.00,VWS V14.00,2013-01-04 00:24:00,
2013-01-03 19:29:00,72.0,67.6,30.06,SW,217,0.0,0.0,86,0.00,,,0.00,VWS V14.00,2013-01-04 00:29:00,
2013-01-03 19:34:00,71.7,67.6,30.06,SW,217,0.0,0.0,87,0.00,,,0.00,VWS V14.00,2013-01-04 00:34:00,
2013-01-03 19:39:00,71.5,67.4,30.06,SW,217,0.0,0.0,87,0.00,,,0.00,VWS V14.00,2013-01-04 00:39:00,
2013-01-03 19:44:00,71.3,67.2,30.06,SW,217,0.0,0.0,87,0.00,,,0.00,VWS V14.00,2013-01-04 00:44:00,
2013-01-03 19:49:00,71.2,67.1,30.05,SW,217,0.0,1.0,87,0.00,,,0.00,VWS V14.00,2013-01-04 00:49:00,
2013-01-03 19:54:00,71.1,67.0,30.06,SW,217,0.0,1.0,87,0.00,,,0.00,VWS V14.00,2013-01-04 00:54:00,
2013-01-03 19:59:00,71.0,67.3,30.06,SW,217,0.0,1.0,88,0.00,,,0.00,VWS V14.00,2013-01-04 00:59:00,
2013-01-03 20:04:00,70.9,67.2,30.06,SW,217,0.0,0.0,88,0.00,,,0.00,VWS V14.00,2013-01-04 01:04:00,
2013-01-03 20:09:00,70.8,67.1,30.06,SW,217,0.0,0.0,88,0.00,,,0.00,VWS V14.00,2013-01-04 01:09:00,
2013-01-03 20:14:00,70.8,67.1,30.06,SW,217,0.0,0.0,88,0.00,,,0.00,VWS V14.00,2013-01-04 01:14:00,
2013-01-03 20:19:00,70.6,66.9,30.06,SW,217,0.0,0.0,88,0.00,,,0.00,VWS V14.00,2013-01-04 01:19:00,
2013-01-03 20:24:00,70.4,66.7,30.06,SW,217,0.0,0.0,88,0.00,,,0.00,VWS V14.00,2013-01-04 01:24:00,
2013-01-03 20:29:00,70.3,66.6,30.07,SW,217,0.0,0.0,88,0.00,,,0.00,VWS V14.00,2013-01-04 01:29:00,
2013-01-03 20:34:00,70.1,66.7,30.07,SW,217,0.0,0.0,89,0.00,,,0.00,VWS V14.00,2013-01-04 01:34:00,
2013-01-03 20:39:00,70.0,66.6,30.07,SW,217,0.0,0.0,89,0.00,,,0.00,VWS V14.00,2013-01-04 01:39:00,
2013-01-03 20:44:00,69.8,66.4,30.07,SW,217,0.0,0.0,89,0.00,,,0.00,VWS V14.00,2013-01-04 01:44:00,
2013-01-03 20:49:00,69.7,66.3,30.07,SW,217,0.0,0.0,89,0.00,,,0.00,VWS V14.00,2013-01-04 01:49:00,
2013-01-03 20:54:00,69.5,66.1,30.07,SW,217,0.0,0.0,89,0.00,,,0.00,VWS V14.00,2013-01-04 01:54:00,
2013-01-03 20:59:00,69.5,66.4,30.07,SW,217,0.0,0.0,90,0.00,,,0.00,VWS V14.00,2013-01-04 01:59:00,
2013-01-03 21:04:00,69.6,66.5,30.07,SW,217,0.0,0.0,90,0.00,,,0.00,VWS V14.00,2013-01-04 02:04:00,
2013-01-03 21:09:00,69.6,66.5,30.07,SW,217,0.0,1.0,90,0.00,,,0.00,VWS V14.00,2013-01-04 02:09:00,
2013-01-03 21:14:00,69.7,67.0,30.07,SW,217,0.0,3.0,91,0.00,,,0.00,VWS V14.00,2013-01-04 02:14:00,
2013-01-03 21:19:00,69.9,67.2,30.07,SW,217,0.0,4.0,91,0.00,,,0.00,VWS V14.00,2013-01-04 02:19:00,
2013-01-03 21:24:00,69.8,66.7,30.07,SW,217,0.0,4.0,90,0.00,,,0.00,VWS V14.00,2013-01-04 02:24:00,
2013-01-03 21:29:00,69.6,66.5,30.07,SW,217,0.0,4.0,90,0.00,,,0.00,VWS V14.00,2013-01-04 02:29:00,
2013-01-03 21:34:00,69.4,66.3,30.07,SW,217,0.0,0.0,90,0.00,,,0.00,VWS V14.00,2013-01-04 02:34:00,
2013-01-03 21:39:00,69.3,66.2,30.07,SW,217,0.0,0.0,90,0.00,,,0.00,VWS V14.00,2013-01-04 02:39:00,
2013-01-03 21:44:00,69.2,66.5,30.08,SW,217,0.0,0.0,91,0.00,,,0.00,VWS V14.00,2013-01-04 02:44:00,
2013-01-03 21:49:00,69.1,66.4,30.08,SW,217,0.0,1.0,91,0.00,,,0.00,VWS V14.00,2013-01-04 02:49:00,
2013-01-03 21:54:00,69.2,66.5,30.07,SW,217,0.0,1.0,91,0.00,,,0.00,VWS V14.00,2013-01-04 02:54:00,
2013-01-03 21:59:00,69.2,66.8,30.07,SW,217,0.0,1.0,92,0.00,,,0.00,VWS V14.00,2013-01-04 02:59:00,
2013-01-03 22:04:00,69.1,66.4,30.08,SW,217,0.0,0.0,91,0.00,,,0.00,VWS V14.00,2013-01-04 03:04:00,
2013-01-03 22:09:00,69.0,66.6,30.08,SW,217,0.0,0.0,92,0.00,,,0.00,VWS V14.00,2013-01-04 03:09:00,
2013-01-03 22:14:00,69.0,66.6,30.08,SW,217,0.0,1.0,92,0.00,,,0.00,VWS V14.00,2013-01-04 03:14:00,
2013-01-03 22:19:00,69.0,66.6,30.08,SW,217,0.0,0.0,92,0.00,,,0.00,VWS V14.00,2013-01-04 03:19:00,
2013-01-03 22:24:00,69.0,66.6,30.08,SW,217,0.0,0.0,92,0.00,,,0.00,VWS V14.00,2013-01-04 03:24:00,
2013-01-03 22:29:00,68.9,66.5,30.08,SW,217,0.0,0.0,92,0.00,,,0.00,VWS V14.00,2013-01-04 03:29:00,
2013-01-03 22:34:00,68.8,66.4,30.08,SW,217,0.0,0.0,92,0.00,,,0.00,VWS V14.00,2013-01-04 03:34:00,
2013-01-03 22:39:00,68.8,66.7,30.08,SW,217,0.0,0.0,93,0.00,,,0.00,VWS V14.00,2013-01-04 03:39:00,
2013-01-03 22:44:00,68.7,66.3,30.08,SW,217,0.0,0.0,92,0.00,,,0.00,VWS V14.00,2013-01-04 03:44:00,
2013-01-03 22:49:00,68.6,66.5,30.08,SW,217,0.0,0.0,93,0.00,,,0.00,VWS V14.00,2013-01-04 03:49:00,
2013-01-03 22:54:00,68.7,66.6,30.08,SW,217,0.0,0.0,93,0.00,,,0.00,VWS V14.00,2013-01-04 03:54:00,
2013-01-03 22:59:00,68.6,66.5,30.08,SW,217,0.0,0.0,93,0.00,,,0.00,VWS V14.00,2013-01-04 03:59:00,
2013-01-03 23:04:00,68.6,66.5,30.08,SW,217,0.0,0.0,93,0.00,,,0.00,VWS V14.00,2013-01-04 04:04:00,
2013-01-03 23:09:00,68.6,66.5,30.08,SW,217,0.0,0.0,93,0.00,,,0.00,VWS V14.00,2013-01-04 04:09:00,
2013-01-03 23:14:00,68.7,66.9,30.08,SW,217,0.0,0.0,94,0.00,,,0.00,VWS V14.00,2013-01-04 04:14:00,
2013-01-03 23:19:00,68.8,67.0,30.09,SW,217,0.0,0.0,94,0.00,,,0.00,VWS V14.00,2013-01-04 04:19:00,
2013-01-03 23:24:00,68.8,67.0,30.09,SW,217,0.0,0.0,94,0.00,,,0.00,VWS V14.00,2013-01-04 04:24:00,
2013-01-03 23:29:00,68.8,67.0,30.08,SW,217,0.0,0.0,94,0.00,,,0.00,VWS V14.00,2013-01-04 04:29:00,
2013-01-03 23:34:00,68.8,67.0,30.08,SW,217,0.0,0.0,94,0.00,,,0.00,VWS V14.00,2013-01-04 04:34:00,
2013-01-03 23:39:00,68.9,67.1,30.08,SW,217,0.0,0.0,94,0.00,,,0.00,VWS V14.00,2013-01-04 04:39:00,
2013-01-03 23:44:00,69.0,67.2,30.07,SW,217,0.0,0.0,94,0.00,,,0.00,VWS V14.00,2013-01-04 04:44:00,
2013-01-03 23:49:00,69.1,67.3,30.08,SW,217,0.0,0.0,94,0.00,,,0.00,VWS V14.00,2013-01-04 04:49:00,
2013-01-03 23:54:00,69.2,67.4,30.07,SW,217,0.0,0.0,94,0.00,,,0.00,VWS V14.00,2013-01-04 04:54:00,
2013-01-03 23:59:00,69.2,67.4,30.07,SW,217,0.0,0.0,94,0.00,,,0.00,VWS V14.00,2013-01-04 04:59:00,